[[{"header":{"parameterUnit":"m.s-1","parameterCategory":1,"la1":30.2991,"la2":30.254,"lo1":-89.0895,"lo2":-89.0444,"dy":0.0017,"dx":0.0017,"nx":28,"ny":28,"refTime":"2024-04-15T03:00:00:Z","depth":0,"parameterNumber":2,"parameterNumberName":"U-component_of_WINDS"},"data":[0,0,0,0,0,0,0,0,0,0,0,0,0,0,0,0,0,0,0,0,0,0,0,0,0,0,0,0,0,0,0,0,0,0,0,0,0,0,0,0,0,0,0,0,0,0,0,0,0,0,0,0,0,0,0,0,0,0,-4.2806,-4.2807,0,-4.2885,-4.2886,-4.2887,-4.2827,-4.2825,-4.2822,-4.282,-4.2898,-4.2902,-4.2907,0,0,0,0,0,0,0,0,0,0,0,0,0,-4.2601,-4.2605,-4.2806,-4.2807,-4.2808,-4.2885,-4.2886,-4.2887,-4.2828,-4.2825,-4.2822,-4.2819,-4.2897,-4.2902,-4.2907,0,0,0,0,0,0,0,0,0,0,0,0,0,-4.2686,-4.2607,-4.2806,-4.2788,-4.2787,-4.2885,-4.2886,-4.2888,-4.2828,-4.2825,-4.2821,-4.2817,-4.2895,-4.2901,-4.2908,-4.3027,0,0,-4.2929,-4.2932,0,0,0,0,0,0,0,0,-4.2681,-4.2694,-4.279,-4.2789,-4.2789,-4.2843,-4.2843,-4.2934,-4.2829,-4.2813,-4.282,-4.2815,-4.2883,-4.289,-4.2913,-4.3031,-4.3034,-4.2929,-4.2933,-4.2936,-4.2938,0,0,0,0,0,0,0,-4.2676,-4.269,-4.2837,-4.2791,-4.2791,-4.2775,-4.2783,-4.286,-4.2868,-4.2814,-4.281,-4.282,-4.2882,-4.2907,-4.2915,-4.3036,-4.2929,-4.2935,-4.2939,-4.2942,-4.3253,-4.3257,0,0,0,0,0,0,-4.2672,-4.2686,-4.2835,-4.284,-4.2725,-4.2782,-4.279,-4.2829,-4.2867,-4.287,-4.2823,-4.2817,-4.2897,-4.2907,-4.2917,-4.3058,-4.2936,-4.2943,-4.2946,-4.3249,-4.3254,-4.3258,0,0,0,0,0,0,-4.2668,-4.2686,-4.2832,-4.2762,-4.2779,-4.2789,-4.2833,-4.2833,-4.2858,-4.2875,-4.2875,-4.2848,-4.2895,-4.2908,-4.3,-4.3059,-4.2946,-4.2952,-4.3244,-4.325,-4.3256,-4.334,0,0,0,0,0,0,-4.2662,-4.2685,-4.2731,-4.2763,-4.2783,-4.2915,-4.2837,-4.2837,-4.287,-4.2863,-4.2898,-4.29,-4.2893,-4.299,-4.3007,-4.3067,-4.2957,-4.3238,-4.3247,-4.3254,-4.3332,-4.3349,-4.3363,0,0,0,0,0,-4.2655,-4.2751,-4.2733,-4.2752,-4.2841,-4.2918,-4.2929,-4.292,-4.2875,-4.2921,-4.2931,-4.2899,-4.3051,-4.3,-4.3018,-4.3081,-4.3235,-4.3244,-4.3254,-4.3325,-4.3346,-4.3363,0,0,0,0,0,0,-4.2725,-4.2755,-4.2736,-4.2846,-4.288,-4.2908,-4.2965,-4.2942,-4.2988,-4.2979,-4.2965,-4.2973,-4.307,-4.3085,-4.3028,-4.3198,-4.3135,-4.3149,-4.3184,-4.3203,-4.3218,-4.3211,-4.2963,0,0,0,0,0,-4.2753,-4.2814,-4.2837,-4.2932,-4.295,-4.2955,-4.2988,-4.2978,-4.3012,-4.3026,-4.3043,-4.3077,-4.3132,-4.3169,-4.3221,-4.3335,-4.334,-4.3387,-4.3402,-4.3415,-4.3426,-4.3485,-4.3505,-4.329,-4.329,-4.3289,0,0,-4.2812,-4.2836,-4.2875,-4.2946,-4.2971,-4.3033,-4.2967,-4.3036,-4.3082,-4.3036,-4.3124,-4.3138,-4.3175,-4.3278,-4.3325,-4.3294,-4.3487,-4.3427,-4.3437,-4.3441,-4.3497,-4.3517,-4.3536,-4.3296,-4.3295,-4.3294,0,0,-4.295,-4.2976,-4.3056,-4.3083,-4.3122,-4.3125,-4.3145,-4.3177,-4.3184,-4.3272,-4.3239,-4.3293,-4.3389,-4.3416,-4.3442,-4.3591,-4.3562,-4.3609,-4.3687,-4.3746,-4.3762,-4.3777,-4.3828,-4.3847,-4.362,-4.362,-4.362,0,-4.3018,-4.3111,-4.3101,-4.3172,-4.3203,-4.3166,-4.3247,-4.3273,-4.3327,-4.3349,-4.3314,-4.3433,-4.3456,-4.3564,-4.36,-4.3623,-4.3643,-4.3603,-4.3761,-4.3776,-4.379,-4.3838,-4.3857,-4.3625,-4.3625,-4.3624,-4.3624,0,-4.3191,-4.3256,-4.3316,-4.337,-4.3408,-4.3484,-4.3484,-4.3524,-4.3511,-4.3517,-4.3606,-4.3632,-4.3687,-4.3713,-4.3701,-4.3819,-4.3799,-4.3763,-4.37,-4.3816,-4.386,-4.3879,-4.3633,-4.3631,-4.3629,-4.3628,0,0,-4.3374,-4.3421,-4.3443,-4.3466,-4.3507,-4.3556,-4.363,-4.3685,-4.3718,-4.3758,-4.3817,-4.39,-4.3866,-4.3897,-4.3887,-4.3938,-4.4052,-4.3896,-4.3897,-4.3922,-4.4181,-4.4206,-4.4227,-4.4034,-4.4037,-4.404,-4.4177,0,-4.3512,-4.3641,-4.3633,-4.3753,-4.3812,-4.3778,-4.3842,-4.3873,-4.3881,-4.3931,-4.3939,-4.3997,-4.395,-4.3968,-4.4017,-4.4027,-4.4103,-4.4018,-4.4087,-4.409,-4.4076,-4.4251,-4.4278,-4.4406,-4.4195,-4.4198,-4.42,0,-4.3691,-4.3735,-4.3861,-4.3892,-4.3916,-4.3974,-4.4023,-4.4072,-4.4107,-4.4108,-4.4142,-4.4124,-4.4197,-4.4134,-4.4233,-4.4175,-4.4203,-4.4213,-4.4217,-4.4221,-4.415,-4.4257,-4.4447,-4.4465,-4.4228,-4.4226,-4.4224,0,-4.3808,-4.3901,-4.3987,-4.4008,-4.4047,-4.4088,-4.4106,-4.4137,-4.417,-4.4213,-4.4234,-4.4285,-4.4312,-4.4352,-4.4347,-4.4302,-4.4447,-4.4384,-4.4449,-4.4449,-4.4479,-4.4476,-4.4673,-4.4502,-4.4502,-4.4501,-4.4501,0,-4.3962,-4.404,-4.404,-4.4093,-4.4179,-4.417,-4.4255,-4.4268,-4.4296,-4.4349,-4.4324,-4.4375,-4.4367,-4.4418,-4.4416,-4.4497,-4.451,-4.4512,-4.451,-4.4513,-4.4512,-4.4529,-4.4519,-4.4506,-4.4505,-4.4504,-4.4503,0,-4.4107,-4.4111,-4.4202,-4.4232,-4.4241,-4.4303,-4.4327,-4.4377,-4.4383,-4.4451,-4.4467,-4.4476,-4.4535,-4.4535,-4.4602,-4.46,-4.4698,-4.4688,-4.4687,-4.4684,-4.4747,-4.474,-4.4959,-4.4986,-4.48,-4.4802,-4.4804,0,-4.4203,-4.4262,-4.4298,-4.4332,-4.4353,-4.4409,-4.4443,-4.4436,-4.4472,-4.4516,-4.456,-4.4616,-4.4661,-4.4756,-4.4767,-4.4818,-4.4807,-4.488,-4.4814,-4.4815,-4.4805,-4.48,-4.4805,-4.4892,-4.4894,-4.4896,-4.4897,0,-4.4373,-4.4372,-4.4422,-4.4473,-4.4514,-4.4553,-4.459,-4.4619,-4.4617,-4.4658,-4.4718,-4.4753,-4.4821,-4.4877,-4.4926,-4.4943,-4.4919,-4.4918,-4.4935,-4.4937,-4.4933,-4.4934,-4.4719,-4.4912,-4.4911,-4.491,-4.4909,-4.4908,-4.4495,-4.4545,-4.4578,-4.4634,-4.4661,-4.4695,-4.4743,-4.4755,-4.4805,-4.486,-4.4853,-4.4919,-4.4951,-4.5015,-4.5036,-4.5087,-4.5061,-4.5087,-4.5093,-4.5098,-4.5104,-4.4928,-4.5096,-4.5096,-4.5095,-4.5095,-4.5095,0,-4.4661,-4.4681,-4.4733,-4.4784,-4.4828,-4.4804,-4.4842,-4.488,-4.4939,-4.4971,-4.5015,-4.5083,-4.5137,-4.5154,-4.5205,-4.5243,-4.5233,-4.5256,-4.5252,-4.5256,-4.5126,-4.5104,-4.5263,-4.5263,-4.5263,-4.5263,-4.5263,-4.5263,-4.4753,-4.4836,-4.4838,-4.4934,-4.4952,-4.5017,-4.5041,-4.5072,-4.5097,-4.5175,-4.5219,-4.523,-4.5255,-4.5309,-4.5356,-4.536,-4.5379,-4.5406,-4.5405,-4.5282,-4.5265,-4.5249,-4.5229,-4.5411,-4.5411,-4.553,-4.5531,-4.5532]},{"header":{"parameterUnit":"m.s-1","parameterCategory":1,"la1":30.2991,"la2":30.254,"lo1":-89.0895,"lo2":-89.0444,"dy":0.0017,"dx":0.0017,"nx":28,"ny":28,"refTime":"2024-04-15T03:00:00:Z","depth":0,"parameterNumber":3,"parameterNumberName":"V-component_of_WINDS"},"data":[0,0,0,0,0,0,0,0,0,0,0,0,0,0,0,0,0,0,0,0,0,0,0,0,0,0,0,0,0,0,0,0,0,0,0,0,0,0,0,0,0,0,0,0,0,0,0,0,0,0,0,0,0,0,0,0,0,0,2.2946,2.2946,0,2.2974,2.2974,2.2974,2.2922,2.292,2.2919,2.2917,2.2943,2.2945,2.2947,0,0,0,0,0,0,0,0,0,0,0,0,0,2.2847,2.2849,2.2946,2.2946,2.2947,2.2974,2.2974,2.2974,2.2922,2.292,2.2918,2.2916,2.2942,2.2945,2.2947,0,0,0,0,0,0,0,0,0,0,0,0,0,2.2883,2.2849,2.2946,2.2924,2.2922,2.2974,2.2974,2.2974,2.2923,2.292,2.2918,2.2915,2.2941,2.2944,2.2948,2.3021,0,0,2.2958,2.296,0,0,0,0,0,0,0,0,2.2881,2.2887,2.2927,2.2926,2.2924,2.2942,2.2948,2.299,2.2923,2.2923,2.2917,2.2914,2.2944,2.2947,2.2958,2.3022,2.3023,2.2959,2.2961,2.2962,2.2963,0,0,0,0,0,0,0,2.2879,2.2886,2.2957,2.2928,2.2926,2.2912,2.2915,2.2956,2.2948,2.2922,2.2919,2.2923,2.2943,2.2955,2.2958,2.3024,2.2959,2.2962,2.2964,2.2965,2.315,2.3153,0,0,0,0,0,0,2.2879,2.2884,2.2956,2.2958,2.2896,2.2916,2.2919,2.2939,2.2947,2.2946,2.2925,2.292,2.295,2.2954,2.2959,2.3046,2.2962,2.2965,2.2967,2.3147,2.3151,2.3154,0,0,0,0,0,0,2.2878,2.2886,2.2955,2.292,2.2928,2.2921,2.2943,2.2941,2.2952,2.2949,2.2947,2.2939,2.2948,2.2954,2.3006,2.3046,2.2967,2.297,2.3144,2.3148,2.3152,2.322,0,0,0,0,0,0,2.2875,2.2886,2.2914,2.2921,2.293,2.3003,2.2946,2.2943,2.2959,2.2953,2.2961,2.296,2.2947,2.3002,2.301,2.305,2.2973,2.314,2.3146,2.3151,2.3215,2.3226,2.3237,0,0,0,0,0,2.2871,2.2931,2.2916,2.2925,2.2965,2.3005,2.301,2.2994,2.2962,2.299,2.2988,2.296,2.3041,2.3007,2.3016,2.3058,2.3138,2.3144,2.315,2.321,2.3224,2.3236,0,0,0,0,0,0,2.2928,2.2932,2.2914,2.2978,2.2992,2.2996,2.3031,2.3009,2.3031,2.3025,2.3003,2.3006,2.3062,2.3065,2.3028,2.3129,2.3084,2.3092,2.3126,2.3139,2.315,2.3149,2.2976,0,0,0,0,0,2.2948,2.2981,2.2982,2.3038,2.3046,2.3038,2.3054,2.3041,2.3054,2.3059,2.306,2.3073,2.3101,2.312,2.3146,2.3215,2.3216,2.3247,2.3259,2.3268,2.3275,2.3313,2.3327,2.3175,2.3175,2.3175,0,0,2.2989,2.2996,2.3018,2.305,2.3059,2.3093,2.3043,2.3081,2.3106,2.3064,2.3114,2.3116,2.3129,2.319,2.3217,2.3194,2.3318,2.3276,2.3283,2.3286,2.3321,2.3335,2.3348,2.3179,2.3178,2.3178,0,0,2.3083,2.3091,2.3139,2.3149,2.3164,2.3158,2.317,2.3178,2.3178,2.3227,2.3197,2.3227,2.3275,2.3286,2.3298,2.3397,2.3372,2.3406,2.3464,2.3501,2.3513,2.3523,2.3559,2.3573,2.3414,2.3414,2.3414,0,2.3132,2.3184,2.3166,2.3207,2.3223,2.3188,2.3237,2.3247,2.3269,2.328,2.3255,2.3316,2.3322,2.3386,2.341,2.3421,2.3434,2.3405,2.3513,2.3523,2.3532,2.3567,2.358,2.3418,2.3417,2.3417,2.3417,0,2.3244,2.3281,2.3318,2.3341,2.3361,2.3405,2.3395,2.3416,2.3402,2.3398,2.345,2.3456,2.3483,2.3497,2.3482,2.3559,2.3545,2.3516,2.347,2.3551,2.3583,2.3596,2.3424,2.3422,2.3421,2.342,0,0,2.3374,2.3388,2.3402,2.3413,2.3427,2.3455,2.3498,2.3525,2.3545,2.3561,2.3597,2.364,2.3614,2.3627,2.3613,2.3646,2.3725,2.3613,2.3613,2.3635,2.3811,2.3833,2.3849,2.3709,2.3711,2.3713,2.381,0,2.3467,2.3543,2.3529,2.3603,2.3636,2.3604,2.3642,2.3654,2.3653,2.368,2.3678,2.3709,2.3672,2.368,2.3711,2.3709,2.376,2.3702,2.3742,2.3744,2.3741,2.3865,2.3888,2.398,2.3823,2.3825,2.3826,0,2.3586,2.3609,2.3687,2.3697,2.371,2.3744,2.3769,2.3796,2.381,2.3806,2.3822,2.3803,2.3845,2.3799,2.3858,2.3818,2.3834,2.3836,2.3839,2.3842,2.379,2.3873,2.4009,2.4023,2.3846,2.3844,2.3843,0,2.3675,2.3724,2.3777,2.3787,2.38,2.3825,2.3831,2.3842,2.386,2.3881,2.3893,2.3918,2.3932,2.3953,2.3941,2.3907,2.4002,2.3954,2.4,2.4001,2.4022,2.4021,2.4163,2.4031,2.4031,2.4031,2.403,0,2.3781,2.383,2.3817,2.385,2.3904,2.3887,2.394,2.3943,2.3953,2.3986,2.3959,2.3989,2.3971,2.4001,2.3991,2.4042,2.4048,2.4047,2.4044,2.405,2.405,2.406,2.4054,2.4034,2.4033,2.4033,2.4032,0,2.3889,2.3882,2.3938,2.3946,2.3949,2.3988,2.3995,2.4025,2.4022,2.4063,2.4072,2.4066,2.41,2.409,2.4125,2.4119,2.4184,2.4172,2.418,2.4177,2.4225,2.4221,2.4379,2.4399,2.4253,2.4254,2.4256,0,2.3957,2.3995,2.4007,2.4027,2.4036,2.4069,2.4087,2.4072,2.4093,2.4112,2.414,2.4171,2.4195,2.425,2.4249,2.4276,2.4266,2.4319,2.4269,2.4275,2.4267,2.4266,2.427,2.4329,2.4331,2.4332,2.4333,0,2.4081,2.4076,2.4104,2.4132,2.4155,2.4176,2.4194,2.4212,2.4198,2.4222,2.4256,2.4275,2.4312,2.4344,2.4369,2.4375,2.4352,2.4349,2.4361,2.4368,2.4371,2.4371,2.4207,2.4345,2.4344,2.4343,2.4343,2.4342,2.4172,2.4204,2.4218,2.4251,2.4263,2.4281,2.431,2.4311,2.434,2.437,2.4359,2.4398,2.4412,2.4443,2.4452,2.4483,2.4462,2.448,2.4485,2.449,2.4496,2.4366,2.4487,2.4487,2.4486,2.4486,2.4486,0,2.4294,2.4302,2.4333,2.436,2.4385,2.4363,2.4382,2.4405,2.444,2.4455,2.448,2.452,2.455,2.4552,2.4581,2.4605,2.4595,2.4613,2.4611,2.4613,2.4512,2.4499,2.462,2.462,2.462,2.462,2.462,2.462,2.4361,2.4415,2.4412,2.4471,2.4478,2.4518,2.4531,2.4547,2.4559,2.4605,2.4631,2.4632,2.4642,2.4671,2.4698,2.4698,2.471,2.4732,2.4728,2.4634,2.462,2.4608,2.4595,2.4735,2.4735,2.4827,2.4828,2.4828]}]]